Weather History for Chadron, NE

Change the Weather History Date:

Monday, November 19, 2012

  Actual Average Record
Temperature  
Mean Temperature 43 °F 32 °F  
Max Temperature 60 °F 46 °F 77 °F (2007)
Min Temperature 25 °F 18 °F -1 °F (1921)
Degree Days  
Heating Degree Days 22 33  
Month to date heating degree days 474 537  
Since 1 July heating degree days 1145 1290  
Cooling Degree Days 0 0  
Month to date cooling degree days 0 0  
Year to date cooling degree days 1167 712  
Moisture  
Dew Point 28 °F    
Average Humidity 61    
Maximum Humidity 92    
Minimum Humidity 30    
Precipitation  
Precipitation 0.00 in 0.02 in 0.75 in (1930)
Month to date precipitation 0.14 0.44  
Year to date precipitation 7.40 17.35  
Sea Level Pressure  
Sea Level Pressure 30.17 in    
Wind  
Wind Speed 4 mph (SW)    
Max Wind Speed 9 mph    
Max Gust Speed 12 mph    
Visibility 9 miles    
Events      
T = Trace of Precipitation, MM = Missing Value Source: NWS Daily Summary

Daily Weather History Graph

Daily Weather History Graph

Search for Another Location

Airport:

Trip Planner

Search our weather history database for the weather conditions in past years. The results will help you decide how hot, cold, wet, or windy it might be!

Date:

Astronomy

Nov. 19, 2012 Rise Set
Actual Time 6:50 AM MST 4:25 PM MST
Civil Twilight 6:19 AM MST 4:56 PM MST
Nautical Twilight 5:44 AM MST 5:30 PM MST
Astronomical Twilight 5:11 AM MST 6:04 PM MST
Moon 11:50 AM MST (11/19) 10:59 PM MST (11/19)
Length of Visible Light 10h 37m
Length of Day
9h 35m
Waxing Crescent, 41% of the Moon is Illuminated
Nov 19
Waxing Crescent
Nov 20
First Quarter
Nov 28
Full
Dec 6
Last Quarter
Dec 13
New

Hourly Weather History & Observations

Time (MST) Temp. Windchill Dew Point Humidity Pressure Visibility Wind Dir Wind Speed Gust Speed Precip Events Conditions
12:53 AM 33.1 °F 28.7 °F 28.0 °F 82% 30.04 in 10.0 mi SW 4.6 mph - N/A   Clear
1:53 AM 33.1 °F - 27.0 °F 78% 30.06 in 10.0 mi Calm Calm - N/A   Clear
2:53 AM 28.9 °F - 25.0 °F 85% 30.10 in 10.0 mi Calm Calm - N/A   Clear
3:53 AM 26.1 °F 20.5 °F 24.1 °F 92% 30.12 in 10.0 mi SW 4.6 mph - N/A   Clear
5:53 AM 28.9 °F 25.2 °F 26.1 °F 89% 30.19 in 10.0 mi SW 3.5 mph - N/A   Clear
6:53 AM 26.1 °F 18.4 °F 23.0 °F 88% 30.23 in 10.0 mi SW 6.9 mph - N/A   Clear
7:53 AM 28.9 °F 25.2 °F 26.1 °F 89% 30.25 in 10.0 mi WSW 3.5 mph - N/A   Clear
8:53 AM 37.0 °F - 30.9 °F 79% 30.24 in 10.0 mi Calm Calm - N/A   Clear
9:53 AM 48.0 °F - 30.9 °F 52% 30.22 in 10.0 mi Variable 3.5 mph - N/A   Clear
10:53 AM 51.1 °F - 21.9 °F 32% 30.21 in 10.0 mi SE 3.5 mph - N/A   Clear
11:53 AM 55.0 °F - 25.0 °F 31% 30.17 in 10.0 mi Calm Calm - N/A   Clear
12:53 PM 57.9 °F - 28.9 °F 33% 30.15 in 10.0 mi Calm Calm - N/A   Clear
1:53 PM 59.0 °F - 30.0 °F 33% 30.14 in 10.0 mi Calm Calm - N/A   Clear
2:53 PM 59.0 °F - 32.0 °F 36% 30.14 in 10.0 mi NE 3.5 mph - N/A   Clear
3:53 PM 54.0 °F - 32.0 °F 43% 30.17 in 10.0 mi Calm Calm - N/A   Clear
4:28 PM 48.2 °F - 32.0 °F 54% 30.10 in 2.0 mi Calm Calm - N/A   Haze
4:39 PM 44.6 °F - 30.2 °F 57% 30.10 in 5.0 mi Calm Calm - N/A   Haze
4:53 PM 44.1 °F 42.5 °F 30.9 °F 60% 30.19 in 9.0 mi SSE 3.5 mph - N/A   Clear
5:53 PM 37.9 °F 33.5 °F 30.0 °F 73% 30.22 in 10.0 mi SW 5.8 mph - N/A   Clear
6:53 PM 35.1 °F 28.6 °F 28.9 °F 78% 30.25 in 10.0 mi WSW 8.1 mph - N/A   Clear
7:53 PM 36.0 °F 30.3 °F 28.9 °F 76% 30.24 in 10.0 mi SW 6.9 mph - N/A   Clear
8:53 PM 34.0 °F 27.2 °F 28.9 °F 82% 30.22 in 10.0 mi WSW 8.1 mph - N/A   Clear
9:53 PM 30.9 °F 26.2 °F 27.0 °F 85% 30.20 in 10.0 mi SW 4.6 mph - N/A   Clear
10:53 PM 32.0 °F 24.8 °F 28.0 °F 85% 30.18 in 10.0 mi WSW 8.1 mph - N/A   Clear
11:53 PM 32.0 °F 25.6 °F 28.0 °F 85% 30.17 in 10.0 mi SW 6.9 mph - N/A   Clear